This demonstration page uses our WeatherBlox Daily Observations layout. Learn more.

Hourly Observations for September 9, 2018

Temp ( °F °C ) Dew Point ( °F °C ) Humidity (%) Winds ( mph kmh ) Pressure ( in mb ) Visibility ( mi km ) Precip ( " mm )
12:15 am 00:15 Cloudy 59 15.2 59 15.2 100 100 Calm 30.06 1018 10 16.09344 0 0
12:35 am 00:35 Cloudy 60 15.5 60 15.5 100 100 SE 3 6 30.06 1018 10 16.09344 0 0
12:55 am 00:55 Cloudy 60 15.7 60 15.7 100 100 Calm 30.09 1019 10 16.09344 0 0
1:15 am 01:15 Cloudy 61 16 61 16 100 100 SE 6 9 30.06 1018 10 16.09344 0 0
1:35 am 01:35 Cloudy 61 16.3 61 16.3 100 100 SSE 7 11 30.06 1018 7 11.265408 0 0
1:55 am 01:55 Cloudy 62 16.5 62 16.5 100 100 SSE 5 7 30.06 1018 7 11.265408 0 0
2:15 am 02:15 Cloudy 62 16.5 62 16.5 100 100 SSE 6 9 30.06 1018 7 11.265408 0 0
2:35 am 02:35 Cloudy 62 16.7 62 16.7 100 100 SSE 7 11 30.06 1018 10 16.09344 0 0
2:55 am 02:55 Cloudy 62 16.6 62 16.6 100 100 SSE 9 15 30.06 1018 10 16.09344 0 0
3:15 am 03:15 Cloudy 62 16.5 62 16.5 100 100 SSE 8 13 30.03 1017 10 16.09344 0 0
3:35 am 03:35 Cloudy 61 16.3 61 16.3 100 100 SSE 14 22 30.03 1017 10 16.09344 0 0
3:55 am 03:55 Cloudy 61 16.2 61 16.2 100 100 S 13 20 30.03 1017 10 16.09344 0 0
4:15 am 04:15 Cloudy 61 16.2 61 16.2 100 100 SSE 10 17 30.03 1017 10 16.09344 0 0
4:35 am 04:35 Cloudy 61 16.2 61 16.2 100 100 S 12 19 30.03 1017 10 16.09344 0 0
4:55 am 04:55 Cloudy 61 16.2 61 16.2 100 100 SSE 13 20 30.03 1017 10 16.09344 0 0
5:15 am 05:15 Cloudy 61 16.1 61 16.1 100 100 SSE 13 20 30 1016 10 16.09344 0 0
5:35 am 05:35 Cloudy 61 16 61 16 100 100 SSE 12 19 30 1016 10 16.09344 0 0
5:55 am 05:55 Cloudy 61 16 61 16 100 100 SSE 12 19 30.03 1017 10 16.09344 0 0
6:15 am 06:15 Cloudy 61 16 60 15.8 99 99 SSE 13 20 30.03 1017 10 16.09344 0 0
6:35 am 06:35 Cloudy 61 16 60 15.7 98 98 S 10 17 30.03 1017 10 16.09344 0 0
6:55 am 06:55 Cloudy 60 15.8 60 15.6 99 99 SSE 9 15 30.03 1017 10 16.09344 0 0
7:15 am 07:15 Cloudy 60 15.7 60 15.5 99 99 SSE 8 13 30.03 1017 10 16.09344 0 0
7:35 am 07:35 Cloudy 60 15.7 60 15.5 99 99 SSE 9 15 30.03 1017 10 16.09344 0 0
7:55 am 07:55 Cloudy 60 15.6 60 15.5 99 99 SSE 8 13 30.03 1017 10 16.09344 0 0
8:15 am 08:15 Cloudy 60 15.8 60 15.7 99 99 SSE 9 15 30.03 1017 10 16.09344 0 0
8:35 am 08:35 Cloudy 60 15.8 60 15.6 99 99 SSE 9 15 30.03 1017 10 16.09344 0 0
8:55 am 08:55 Cloudy 61 16 60 15.6 97 97 S 8 13 30.03 1017 10 16.09344 0 0
9:15 am 09:15 Cloudy 62 16.5 60 15.7 95 95 S 8 13 30.03 1017 10 16.09344 0 0
9:35 am 09:35 Cloudy 62 16.8 60 15.7 93 93 S 12 19 30 1016 10 16.09344 0 0
9:55 am 09:55 Cloudy 63 17.2 60 15.6 90 90 S 10 17 30 1016 10 16.09344 0 0
10:15 am 10:15 Cloudy 63 17.4 60 15.5 89 89 S 12 19 30 1016 10 16.09344 0 0
10:35 am 10:35 Cloudy 64 17.5 59 15.2 86 86 S 10 17 30 1016 10 16.09344 0 0
10:55 am 10:55 Cloudy 65 18.5 60 15.3 82 82 SSE 12 19 30 1016 10 16.09344 0 0
11:15 am 11:15 Cloudy 66 19 59 15.1 78 78 SSE 13 20 30 1016 10 16.09344 0 0
11:35 am 11:35 Cloudy 67 19.4 60 15.4 78 78 S 9 15 30 1016 10 16.09344 0 0
11:55 am 11:55 Cloudy 66 19 60 15.3 79 79 S 10 17 30 1016 10 16.09344 0 0
12:15 pm 12:15 Cloudy 66 19.1 60 15.4 79 79 SSE 12 19 30 1016 10 16.09344 0 0
12:35 pm 12:35 Cloudy 67 19.7 60 15.4 76 76 S 9 15 30 1016 10 16.09344 0 0
12:55 pm 12:55 Cloudy 68 20 60 15.5 75 75 S 12 19 30 1016 10 16.09344 0 0
1:15 pm 13:15 Cloudy 69 20.5 60 15.5 73 73 S 9 15 29.94 1014 10 16.09344 0 0
1:35 pm 13:35 Cloudy 69 20.7 60 15.5 72 72 S 10 17 29.94 1014 10 16.09344 0 0
1:55 pm 13:55 Cloudy 69 20.7 60 15.7 73 73 S 12 19 29.94 1014 10 16.09344 0 0
2:15 pm 14:15 Cloudy 70 20.9 60 15.3 70 70 S 13 20 29.94 1014 10 16.09344 0 0
2:35 pm 14:35 Cloudy 69 20.8 59 15 70 70 S 10 17 29.94 1014 10 16.09344 0 0
2:55 pm 14:55 Cloudy 69 20.7 59 15.2 71 71 S 10 17 29.94 1014 10 16.09344 0 0
3:15 pm 15:15 Cloudy 70 21.1 59 15.2 69 69 S 10 17 29.91 1013 10 16.09344 0 0
3:35 pm 15:35 Cloudy 71 21.4 59 15 67 67 S 10 17 29.91 1013 10 16.09344 0 0
3:55 pm 15:55 Cloudy 72 22.4 59 15.2 64 64 S 12 19 29.91 1013 10 16.09344 0 0
4:15 pm 16:15 Cloudy 72 22.3 60 15.4 65 65 S 10 17 29.91 1013 10 16.09344 0 0
4:35 pm 16:35 Cloudy 71 21.7 59 15 66 66 S 10 17 29.88 1012 10 16.09344 0 0
4:55 pm 16:55 Cloudy 71 21.8 59 14.9 65 65 S 8 13 29.88 1012 10 16.09344 0 0
5:15 pm 17:15 Cloudy 71 21.8 58 14.5 63 63 S 14 22 29.88 1012 10 16.09344 0 0
5:35 pm 17:35 Cloudy 72 22 59 14.9 64 64 S 10 17 29.88 1012 10 16.09344 0 0
5:55 pm 17:55 Cloudy 71 21.8 59 15.1 66 66 S 9 15 29.88 1012 10 16.09344 0 0
6:15 pm 18:15 Cloudy 71 21.6 59 15.1 67 67 S 8 13 29.88 1012 10 16.09344 0 0
6:35 pm 18:35 Cloudy 71 21.5 60 15.5 69 69 S 7 11 29.88 1012 10 16.09344 0 0
6:55 pm 18:55 Cloudy 70 21.2 60 15.6 71 71 S 8 13 29.88 1012 10 16.09344 0 0
7:15 pm 19:15 Cloudy 70 21 60 15.8 72 72 S 3 6 29.88 1012 10 16.09344 0 0
7:35 pm 19:35 Cloudy 69 20.5 61 16.1 76 76 S 5 7 29.88 1012 10 16.09344 0 0
7:55 pm 19:55 Cloudy 67 19.7 62 16.5 82 82 SSE 6 9 29.88 1012 10 16.09344 0 0
8:15 pm 20:15 Cloudy 67 19.4 62 16.5 83 83 SSE 5 7 29.88 1012 10 16.09344 0 0
8:35 pm 20:35 Cloudy 66 19.1 62 16.5 85 85 SSE 6 9 29.91 1013 10 16.09344 0 0
8:55 pm 20:55 Cloudy 66 18.7 61 16.1 85 85 SSE 7 11 29.91 1013 10 16.09344 0 0
9:15 pm 21:15 Cloudy 64 18 61 16.1 89 89 SSE 7 11 29.94 1014 10 16.09344 0 0
9:35 pm 21:35 Partly Cloudy 63 17.3 61 16 92 92 SSE 7 11 29.94 1014 10 16.09344 0 0
9:55 pm 21:55 Clear 62 16.9 60 15.8 93 93 SSE 8 13 29.94 1014 10 16.09344 0 0
10:15 pm 22:15 Clear 62 16.5 60 15.5 94 94 SSE 7 11 29.94 1014 10 16.09344 0 0
10:35 pm 22:35 Clear 61 16.2 60 15.5 96 96 SSE 8 13 29.94 1014 10 16.09344 0 0
10:55 pm 22:55 Clear 61 16.1 59 15.2 94 94 SSE 7 11 29.94 1014 10 16.09344 0 0
11:15 pm 23:15 Clear 60 15.8 59 15 95 95 SSE 6 9 29.97 1015 10 16.09344 0 0
11:35 pm 23:35 Partly Cloudy 60 15.5 59 14.9 96 96 SSE 5 7 29.97 1015 10 16.09344 0 0
11:55 pm 23:55 Mostly Cloudy 60 15.5 59 15 97 97 SSE 6 9 30 1016 10 16.09344 0 0

Powered by AerisWeather